ARG1621 SAZB-SABE

Flight info

Callsign ARG1621
Flight time 0h 53m
Altitude 35000
Route PULAS2G PULAS UW22 VALOS VALOS9Q
Aircraft B738/M-SDE2E3FGHIRWXY/LB1

Departure

Time 2026-05-05 00:11
Airport Comandante Espora Airport (SAZB)

Arrival

Time 2026-05-05 01:04
Airport Aeroparque Jorge Newbery (SABE)
Time Latitude Longitude Altitude Speed Heading
2026-05-04 23:25 -38.71643 -62.16306 256 ft 0 kts 276°
2026-05-05 00:01 -38.71644 -62.16287 256 ft 4 kts 262°
2026-05-05 00:01 -38.71638 -62.16254 256 ft 4 kts 270°
2026-05-05 00:01 -38.71640 -62.16227 256 ft 4 kts 278°
2026-05-05 00:01 -38.71644 -62.16193 256 ft 4 kts 277°
2026-05-05 00:02 -38.71647 -62.16159 256 ft 4 kts 277°
2026-05-05 00:02 -38.71650 -62.16132 256 ft 4 kts 277°
2026-05-05 00:02 -38.71654 -62.16097 256 ft 4 kts 271°
2026-05-05 00:02 -38.71651 -62.16067 256 ft 2 kts 247°
2026-05-05 00:03 -38.71640 -62.16039 256 ft 4 kts 237°
2026-05-05 00:03 -38.71629 -62.16016 256 ft 0 kts 239°
2026-05-05 00:05 -38.71630 -62.16019 256 ft 2 kts 239°
2026-05-05 00:05 -38.71650 -62.16048 256 ft 6 kts 211°
2026-05-05 00:05 -38.71708 -62.16041 256 ft 11 kts 164°
2026-05-05 00:06 -38.71792 -62.16009 256 ft 13 kts 163°
2026-05-05 00:06 -38.71834 -62.15924 256 ft 13 kts 93°
2026-05-05 00:06 -38.71880 -62.15833 255 ft 12 kts 132°
2026-05-05 00:06 -38.71920 -62.15780 255 ft 13 kts 134°
2026-05-05 00:07 -38.72012 -62.15654 255 ft 17 kts 133°
2026-05-05 00:07 -38.72135 -62.15563 256 ft 25 kts 162°
2026-05-05 00:07 -38.72256 -62.15518 257 ft 29 kts 163°
2026-05-05 00:07 -38.72456 -62.15443 257 ft 30 kts 162°
2026-05-05 00:08 -38.72649 -62.15371 254 ft 28 kts 165°
2026-05-05 00:08 -38.72828 -62.15304 254 ft 26 kts 163°
2026-05-05 00:08 -38.72999 -62.15242 253 ft 25 kts 164°
2026-05-05 00:08 -38.73157 -62.15183 254 ft 23 kts 163°
2026-05-05 00:09 -38.73308 -62.15127 255 ft 22 kts 164°
2026-05-05 00:09 -38.73456 -62.15072 258 ft 22 kts 163°
2026-05-05 00:09 -38.73592 -62.15020 257 ft 15 kts 163°
2026-05-05 00:09 -38.73686 -62.15004 257 ft 12 kts 191°
2026-05-05 00:10 -38.73737 -62.14988 258 ft 6 kts 94°
2026-05-05 00:10 -38.73715 -62.14970 257 ft 4 kts 336°
2026-05-05 00:10 -38.73689 -62.14984 257 ft 4 kts 341°
2026-05-05 00:10 -38.73662 -62.14995 257 ft 5 kts 343°
2026-05-05 00:11 -38.73569 -62.15030 257 ft 38 kts 343°
2026-05-05 00:11 -38.73062 -62.15220 253 ft 111 kts 343°
2026-05-05 00:11 -38.72126 -62.15579 295 ft 165 kts 342°
2026-05-05 00:11 -38.70983 -62.15994 967 ft 172 kts 343°
2026-05-05 00:12 -38.69758 -62.16165 1660 ft 193 kts
2026-05-05 00:12 -38.68436 -62.15357 1994 ft 225 kts 31°
2026-05-05 00:12 -38.67073 -62.14197 2464 ft 243 kts 32°
2026-05-05 00:12 -38.65625 -62.13010 3095 ft 256 kts 30°
2026-05-05 00:13 -38.63992 -62.11814 3486 ft 282 kts 26°
2026-05-05 00:13 -38.62231 -62.10631 4399 ft 286 kts 25°
2026-05-05 00:13 -38.60475 -62.09466 5331 ft 289 kts 24°
2026-05-05 00:13 -38.58669 -62.08276 6192 ft 295 kts 23°
2026-05-05 00:14 -38.56830 -62.07061 6999 ft 300 kts 22°
2026-05-05 00:14 -38.54979 -62.05824 8044 ft 296 kts 21°
2026-05-05 00:14 -38.53165 -62.04596 9069 ft 295 kts 20°
2026-05-05 00:14 -38.51362 -62.03382 10110 ft 292 kts 18°
2026-05-05 00:15 -38.49523 -62.02148 10660 ft 308 kts 19°
2026-05-05 00:15 -38.47557 -62.00843 11018 ft 327 kts 18°
2026-05-05 00:15 -38.45472 -61.99508 11337 ft 346 kts 18°
2026-05-05 00:15 -38.43391 -61.97768 11843 ft 370 kts 32°
2026-05-05 00:16 -38.41459 -61.95539 12554 ft 377 kts 35°
2026-05-05 00:16 -38.39513 -61.93248 13148 ft 386 kts 35°
2026-05-05 00:16 -38.37503 -61.90983 13754 ft 391 kts 32°
2026-05-05 00:16 -38.35411 -61.88775 14547 ft 389 kts 30°
2026-05-05 00:17 -38.33285 -61.86661 15371 ft 387 kts 29°
2026-05-05 00:17 -38.31129 -61.84484 15791 ft 402 kts 31°
2026-05-05 00:17 -38.28945 -61.82188 16317 ft 411 kts 32°
2026-05-05 00:17 -38.26742 -61.79838 17013 ft 415 kts 32°
2026-05-05 00:18 -38.24533 -61.77464 17705 ft 418 kts 32°
2026-05-05 00:18 -38.22294 -61.75069 18307 ft 423 kts 32°
2026-05-05 00:18 -38.20021 -61.72652 18887 ft 428 kts 32°
2026-05-05 00:18 -38.17720 -61.70215 19449 ft 431 kts 32°
2026-05-05 00:19 -38.15398 -61.67761 19947 ft 437 kts 32°
2026-05-05 00:19 -38.13047 -61.65280 20485 ft 441 kts 32°
2026-05-05 00:19 -38.10710 -61.62817 21052 ft 444 kts 32°
2026-05-05 00:19 -38.08318 -61.60298 21597 ft 447 kts 32°
2026-05-05 00:20 -38.05909 -61.57763 22128 ft 451 kts 31°
2026-05-05 00:20 -38.03484 -61.55212 22645 ft 455 kts 32°
2026-05-05 00:20 -38.01036 -61.52637 23143 ft 459 kts 31°
2026-05-05 00:20 -37.98568 -61.50045 23625 ft 462 kts 31°
2026-05-05 00:21 -37.96063 -61.47472 24046 ft 463 kts 29°
2026-05-05 00:21 -37.93475 -61.45063 24481 ft 462 kts 26°
2026-05-05 00:21 -37.90828 -61.42737 24911 ft 463 kts 26°
2026-05-05 00:21 -37.88154 -61.40438 25317 ft 465 kts 26°
2026-05-05 00:22 -37.85506 -61.38163 25747 ft 467 kts 26°
2026-05-05 00:22 -37.82811 -61.35832 26159 ft 470 kts 26°
2026-05-05 00:22 -37.80106 -61.33476 26539 ft 473 kts 26°
2026-05-05 00:22 -37.77394 -61.31099 26941 ft 475 kts 26°
2026-05-05 00:23 -37.74672 -61.28706 27343 ft 477 kts 27°
2026-05-05 00:23 -37.71937 -61.26299 27716 ft 480 kts 27°
2026-05-05 00:23 -37.69193 -61.23885 28076 ft 482 kts 27°
2026-05-05 00:23 -37.66424 -61.21450 28432 ft 485 kts 27°
2026-05-05 00:24 -37.63646 -61.19010 28797 ft 487 kts 27°
2026-05-05 00:24 -37.60858 -61.16563 29160 ft 488 kts 27°
2026-05-05 00:24 -37.58102 -61.14146 29550 ft 489 kts 27°
2026-05-05 00:24 -37.55296 -61.11690 29879 ft 492 kts 27°
2026-05-05 00:25 -37.52477 -61.09226 30157 ft 494 kts 27°
2026-05-05 00:25 -37.49640 -61.06749 30418 ft 497 kts 27°
2026-05-05 00:25 -37.46781 -61.04255 30671 ft 499 kts 27°
2026-05-05 00:25 -37.43921 -61.01762 30937 ft 501 kts 27°
2026-05-05 00:26 -37.41050 -60.99261 31188 ft 502 kts 27°
2026-05-05 00:26 -37.38172 -60.96755 31448 ft 504 kts 27°
2026-05-05 00:26 -37.35290 -60.94247 31791 ft 503 kts 27°
2026-05-05 00:26 -37.32412 -60.91744 32172 ft 502 kts 27°
2026-05-05 00:27 -37.29544 -60.89253 32523 ft 501 kts 27°
2026-05-05 00:27 -37.26668 -60.86759 32820 ft 501 kts 27°
2026-05-05 00:27 -37.23834 -60.84305 33108 ft 502 kts 27°
2026-05-05 00:27 -37.20957 -60.81817 33429 ft 501 kts 27°
2026-05-05 00:28 -37.18090 -60.79338 33775 ft 500 kts 27°
2026-05-05 00:28 -37.15217 -60.76857 34060 ft 500 kts 27°
2026-05-05 00:28 -37.12350 -60.74384 34310 ft 500 kts 27°
2026-05-05 00:28 -37.09484 -60.71913 34569 ft 500 kts 27°
2026-05-05 00:29 -37.06623 -60.69448 34848 ft 498 kts 27°
2026-05-05 00:29 -37.03778 -60.66998 35211 ft 495 kts 27°
2026-05-05 00:29 -37.00938 -60.64555 35496 ft 494 kts 27°
2026-05-05 00:29 -36.98104 -60.62123 35701 ft 495 kts 26°
2026-05-05 00:30 -36.95256 -60.59681 35915 ft 495 kts 26°
2026-05-05 00:30 -36.92411 -60.57243 36177 ft 495 kts 26°
2026-05-05 00:30 -36.89574 -60.54811 36469 ft 493 kts 26°
2026-05-05 00:30 -36.86756 -60.52398 36742 ft 492 kts 26°
2026-05-05 00:31 -36.83931 -60.49981 36943 ft 492 kts 26°
2026-05-05 00:31 -36.78247 -60.45133 36919 ft 495 kts 27°
2026-05-05 00:32 -36.72619 -60.40332 36911 ft 490 kts 26°
2026-05-05 00:32 -36.66992 -60.35565 36925 ft 486 kts 26°
2026-05-05 00:33 -36.61392 -60.30848 36919 ft 485 kts 26°
2026-05-05 00:33 -36.55802 -60.26139 36922 ft 485 kts 26°
2026-05-05 00:34 -36.50248 -60.21467 36917 ft 485 kts 26°
2026-05-05 00:34 -36.44653 -60.16773 36905 ft 485 kts 26°
2026-05-05 00:35 -36.39051 -60.12080 36920 ft 485 kts 26°
2026-05-05 00:35 -36.33447 -60.07394 36921 ft 486 kts 26°
2026-05-05 00:36 -36.27928 -60.02772 36890 ft 469 kts 26°
2026-05-05 00:36 -36.25265 -60.00535 36900 ft 455 kts 26°
2026-05-05 00:36 -36.22680 -59.98370 36897 ft 441 kts 26°
2026-05-05 00:36 -36.20178 -59.96280 36896 ft 427 kts 26°
2026-05-05 00:37 -36.17721 -59.94236 36920 ft 426 kts 25°
2026-05-05 00:37 -36.12729 -59.90115 36941 ft 437 kts 25°
2026-05-05 00:38 -36.07597 -59.85893 36933 ft 448 kts 26°
2026-05-05 00:38 -36.02399 -59.81580 36927 ft 452 kts 26°
2026-05-05 00:39 -35.97210 -59.77274 36913 ft 450 kts 26°
2026-05-05 00:39 -35.92073 -59.73015 36387 ft 445 kts 26°
2026-05-05 00:39 -35.89472 -59.70877 35598 ft 453 kts 26°
2026-05-05 00:40 -35.86834 -59.68711 34896 ft 458 kts 26°
2026-05-05 00:40 -35.84163 -59.66512 34199 ft 462 kts 26°
2026-05-05 00:40 -35.81478 -59.64292 33440 ft 468 kts 27°
2026-05-05 00:40 -35.78762 -59.62055 32673 ft 472 kts 26°
2026-05-05 00:41 -35.76014 -59.59817 31916 ft 476 kts 26°
2026-05-05 00:41 -35.73295 -59.57595 31187 ft 479 kts 27°
2026-05-05 00:41 -35.70523 -59.55283 30461 ft 481 kts 28°
2026-05-05 00:42 -35.68901 -59.53927 30034 ft 481 kts 27°
2026-05-05 00:42 -35.66112 -59.51644 29227 ft 482 kts 27°
2026-05-05 00:42 -35.63307 -59.49367 28429 ft 483 kts 27°
2026-05-05 00:42 -35.60499 -59.47085 27651 ft 483 kts 27°
2026-05-05 00:43 -35.57696 -59.44803 26891 ft 483 kts 27°
2026-05-05 00:43 -35.54896 -59.42518 26157 ft 483 kts 27°
2026-05-05 00:43 -35.52099 -59.40236 25438 ft 482 kts 27°
2026-05-05 00:43 -35.49308 -59.37959 24736 ft 481 kts 27°
2026-05-05 00:44 -35.46525 -59.35691 24052 ft 479 kts 27°
2026-05-05 00:44 -35.43742 -59.33466 23362 ft 476 kts 26°
2026-05-05 00:44 -35.40964 -59.31372 22576 ft 473 kts 25°
2026-05-05 00:44 -35.38146 -59.29304 21793 ft 471 kts 25°
2026-05-05 00:45 -35.35338 -59.27250 21039 ft 468 kts 25°
2026-05-05 00:45 -35.32550 -59.25200 20307 ft 466 kts 25°
2026-05-05 00:45 -35.29789 -59.23154 19679 ft 462 kts 26°
2026-05-05 00:45 -35.27067 -59.21125 19258 ft 452 kts 26°
2026-05-05 00:46 -35.24404 -59.19140 18824 ft 445 kts 26°
2026-05-05 00:46 -35.21778 -59.17187 18374 ft 438 kts 26°
2026-05-05 00:46 -35.19180 -59.15284 17842 ft 432 kts 24°
2026-05-05 00:46 -35.16539 -59.13558 17201 ft 428 kts 21°
2026-05-05 00:47 -35.13892 -59.11947 16740 ft 421 kts 21°
2026-05-05 00:47 -35.11317 -59.10404 16295 ft 414 kts 21°
2026-05-05 00:47 -35.08754 -59.08858 15884 ft 408 kts 21°
2026-05-05 00:47 -35.06229 -59.07321 15478 ft 403 kts 21°
2026-05-05 00:48 -35.03741 -59.05794 15082 ft 398 kts 21°
2026-05-05 00:48 -35.01299 -59.04286 14821 ft 389 kts 21°
2026-05-05 00:48 -34.98861 -59.02783 14074 ft 396 kts 22°
2026-05-05 00:48 -34.96387 -59.01258 13363 ft 401 kts 22°
2026-05-05 00:49 -34.93884 -58.99716 12606 ft 404 kts 22°
2026-05-05 00:49 -34.91368 -58.98164 11866 ft 407 kts 23°
2026-05-05 00:49 -34.88825 -58.96646 11140 ft 407 kts 21°
2026-05-05 00:49 -34.86239 -58.95237 10410 ft 407 kts 20°
2026-05-05 00:50 -34.83645 -58.93865 9713 ft 406 kts 20°
2026-05-05 00:50 -34.81057 -58.92486 8959 ft 405 kts 20°
2026-05-05 00:50 -34.78482 -58.91095 8241 ft 403 kts 21°
2026-05-05 00:50 -34.75988 -58.89732 8051 ft 380 kts 21°
2026-05-05 00:51 -34.73670 -58.88466 7750 ft 360 kts 21°
2026-05-05 00:51 -34.71426 -58.87246 7372 ft 347 kts 21°
2026-05-05 00:51 -34.69269 -58.86077 7030 ft 333 kts 21°
2026-05-05 00:51 -34.67194 -58.84954 6718 ft 320 kts 21°
2026-05-05 00:52 -34.65197 -58.83874 6411 ft 308 kts 22°
2026-05-05 00:52 -34.63268 -58.82832 6096 ft 298 kts 22°
2026-05-05 00:52 -34.61403 -58.81823 5792 ft 288 kts 21°
2026-05-05 00:52 -34.59600 -58.80849 5502 ft 279 kts 21°
2026-05-05 00:53 -34.57852 -58.79906 5200 ft 271 kts 21°
2026-05-05 00:53 -34.56248 -58.78788 4919 ft 273 kts 41°
2026-05-05 00:53 -34.55109 -58.76949 4685 ft 272 kts 55°
2026-05-05 00:53 -34.54087 -58.74983 4392 ft 271 kts 55°
2026-05-05 00:54 -34.53098 -58.73074 4115 ft 270 kts 55°
2026-05-05 00:54 -34.52099 -58.71157 3865 ft 268 kts 55°
2026-05-05 00:54 -34.50976 -58.69387 3646 ft 260 kts 36°
2026-05-05 00:54 -34.49533 -58.68173 3579 ft 248 kts 27°
2026-05-05 00:55 -34.48010 -58.67298 3472 ft 237 kts 19°
2026-05-05 00:55 -34.46526 -58.66499 3392 ft 229 kts 21°
2026-05-05 00:55 -34.45112 -58.65700 3320 ft 219 kts 22°
2026-05-05 00:55 -34.43760 -58.64923 3295 ft 213 kts 22°
2026-05-05 00:56 -34.42865 -58.64410 3309 ft 220 kts 22°
2026-05-05 00:56 -34.41441 -58.63599 3324 ft 232 kts 22°
2026-05-05 00:56 -34.39952 -58.62759 3329 ft 239 kts 22°
2026-05-05 00:56 -34.38439 -58.61909 3325 ft 237 kts 22°
2026-05-05 00:57 -34.36973 -58.61084 3232 ft 231 kts 21°
2026-05-05 00:57 -34.34880 -58.60697 3025 ft 236 kts 344°
2026-05-05 00:57 -34.33860 -58.61229 3013 ft 239 kts 324°
2026-05-05 00:57 -34.32788 -58.62759 2975 ft 244 kts 294°
2026-05-05 00:58 -34.32521 -58.64775 2976 ft 247 kts 264°
2026-05-05 00:58 -34.33149 -58.66705 2968 ft 252 kts 235°
2026-05-05 00:58 -34.34501 -58.68020 2966 ft 258 kts 205°
2026-05-05 00:58 -34.36269 -58.68386 2977 ft 263 kts 176°
2026-05-05 00:59 -34.37995 -58.67677 2975 ft 266 kts 146°
2026-05-05 00:59 -34.39354 -58.66167 2987 ft 266 kts 136°
2026-05-05 00:59 -34.40760 -58.64718 2967 ft 264 kts 143°
2026-05-05 00:59 -34.42190 -58.63392 2953 ft 253 kts 141°
2026-05-05 01:00 -34.43509 -58.62056 2950 ft 241 kts 139°
2026-05-05 01:00 -34.44728 -58.60735 2957 ft 229 kts 137°
2026-05-05 01:00 -34.45863 -58.59475 2997 ft 214 kts 136°
2026-05-05 01:00 -34.46772 -58.58145 2966 ft 198 kts 123°
2026-05-05 01:01 -34.47514 -58.56783 2762 ft 191 kts 122°
2026-05-05 01:01 -34.48241 -58.55447 2547 ft 187 kts 122°
2026-05-05 01:01 -34.48940 -58.54180 2294 ft 174 kts 121°
2026-05-05 01:01 -34.49596 -58.52994 2050 ft 166 kts 121°
2026-05-05 01:02 -34.50249 -58.51852 1841 ft 163 kts 120°
2026-05-05 01:02 -34.50865 -58.50664 1679 ft 169 kts 121°
2026-05-05 01:02 -34.51540 -58.49488 1545 ft 170 kts 120°
2026-05-05 01:02 -34.52210 -58.48281 1316 ft 173 kts 121°
2026-05-05 01:03 -34.52877 -58.47051 984 ft 175 kts 121°
2026-05-05 01:03 -34.53553 -58.45867 690 ft 164 kts 122°
2026-05-05 01:03 -34.54160 -58.44746 476 ft 156 kts 123°
2026-05-05 01:03 -34.54764 -58.43658 288 ft 156 kts 123°
2026-05-05 01:04 -34.55367 -58.42574 67 ft 153 kts 123°
2026-05-05 01:04 -34.56286 -58.40928 26 ft 58 kts 124°
2026-05-05 01:04 -34.56386 -58.40749 26 ft 16 kts 124°
2026-05-05 01:05 -34.56396 -58.40676 24 ft 10 kts 44°
2026-05-05 01:05 -34.56334 -58.40684 28 ft 10 kts 318°
2026-05-05 01:05 -34.56286 -58.40737 24 ft 9 kts 317°
2026-05-05 01:05 -34.56239 -58.40789 27 ft 9 kts 318°
2026-05-05 01:06 -34.56194 -58.40838 27 ft 9 kts 316°
2026-05-05 01:06 -34.56164 -58.40901 25 ft 8 kts 296°
2026-05-05 01:06 -34.56136 -58.40962 26 ft 8 kts 303°
2026-05-05 01:06 -34.56102 -58.41017 28 ft 8 kts 307°
2026-05-05 01:07 -34.56069 -58.41069 24 ft 8 kts 307°
2026-05-05 01:07 -34.56037 -58.41120 25 ft 7 kts 307°
2026-05-05 01:07 -34.56007 -58.41169 29 ft 7 kts 307°
2026-05-05 01:07 -34.55977 -58.41217 26 ft 7 kts 307°
2026-05-05 01:08 -34.55948 -58.41263 26 ft 7 kts 307°
2026-05-05 01:08 -34.55916 -58.41305 28 ft 7 kts 340°
2026-05-05 01:08 -34.55872 -58.41287 28 ft 7 kts 26°
2026-05-05 01:08 -34.55830 -58.41298 24 ft 7 kts 316°
2026-05-05 01:09 -34.55804 -58.41345 28 ft 7 kts 303°
2026-05-05 01:09 -34.55778 -58.41391 25 ft 7 kts 305°
2026-05-05 01:09 -34.55750 -58.41427 24 ft 4 kts 350°
2026-05-05 01:09 -34.55734 -58.41416 24 ft 2 kts 31°
2026-05-05 01:10 -34.55723 -58.41407 24 ft 1 kts 32°
2026-05-05 01:10 -34.55718 -58.41404 28 ft 0 kts 32°